Home > Time Zones > World Clock > Weather > Spain > Ceuta > Past weeks

Flag for Spain Weather past 2 weeks in Ceuta, Ceuta, Spain

Now
72 °F

Passing clouds.


Feels Like: 74 °F
Forecast: 68 / 75 °F
Wind: 7 mph from West

Location: Gibraltar Airport

Current Time: Sep 18, 2014 at 10:24:24 PM

Latest Report: Sep 18, 2014 at 9:50 PM


Visibility: N/A

Pressure: 29.89 "Hg

Humidity: 73%

Dew point: 63 °F

Location of CeutaLocation

Historic Weather in Ceuta — Graph

°F

Ceuta temperature yesterday

Maximum temperature yesterday: 79 °F (at 4:50 PM)
Minimum temperature yesterday: 72 °F (at 2:50 AM)
Average temperature yesterday: 73 °F

Past Weeks' High & Low Weather Summary

 TemperatureHumidityPressure
High86 °F (Sep 4, 3:50 PM)100% (Sep 18, 7:50 AM)30.04 "Hg (Sep 18, 7:50 AM)
Low66 °F (Sep 16, 4:50 AM)25% (Sep 15, 5:50 PM)29.80 "Hg (Sep 16, 4:50 AM)
Average75 °F69%29.94 "Hg
* Reported Sep 3 8:50 PM — Sep 18 8:50 PM, Ceuta, Weather by CustomWeather, © 2014

Note: Actual official high and low records may vary slightly from our data, if they occured in-between our weather recording intervals... More about our weather records

Advertising

Ceuta weather history for previous 24 hours

 ConditionsComfort  
Time TempWeatherWind HumidityBarometerVisibility
8:50 PM
Sep 18
72 °FPassing clouds.7 mph73%29.86 "HgN/A
7:50 PM75 °FPassing clouds.8 mph57%29.86 "HgN/A
6:50 PM77 °FPassing clouds.12 mph54%29.83 "HgN/A
5:50 PM77 °FScattered clouds.17 mph54%29.83 "HgN/A
4:50 PM81 °FScattered clouds.12 mph42%29.83 "HgN/A
3:50 PM79 °FPartly sunny.12 mph45%29.83 "HgN/A
2:50 PM79 °FPartly sunny.8 mph51%29.86 "HgN/A
1:50 PM79 °FPartly sunny.9 mph54%29.86 "HgN/A
12:50 PM75 °FPartly sunny.9 mph65%29.89 "HgN/A
11:50 AM75 °FBroken clouds.6 mph69%29.89 "HgN/A
10:50 AM72 °FBroken clouds.2 mph83%29.89 "HgN/A
9:50 AM68 °FBroken clouds.5 mph88%29.86 "HgN/A
8:50 AM66 °FPartly cloudy.3 mph100%29.86 "HgN/A
7:50 AM66 °FPartly cloudy.3 mph100%29.86 "HgN/A
6:50 AM70 °FPassing clouds.3 mph88%29.83 "HgN/A
5:50 AM70 °FClear.5 mph88%29.83 "HgN/A
4:50 AM72 °FPassing clouds.5 mph88%29.86 "HgN/A
3:50 AM72 °FPassing clouds.5 mph88%29.86 "HgN/A
2:50 AM72 °FPassing clouds.5 mph88%29.86 "HgN/A
1:50 AM72 °FClear.5 mph88%29.86 "HgN/A
12:50 AM72 °FClear.5 mph88%29.86 "HgN/A
11:50 PM
Sep 17
72 °FClear.8 mph88%29.89 "HgN/A
10:50 PM73 °FPassing clouds.7 mph78%29.86 "HgN/A
Weather by CustomWeather, © 2014

See weather overviewHow to use our weather pages